"read_dt","SO2 (ppb)","flags","PMT voltage (V)","lamp voltage (V)","lamp intensity (Hz)","internal temp (C)","react chamber temp (C)","sample flow (l/min)","pres (mmHg)","SO2 bkg (ppb)","SO2 coefficient"
2018-06-11 00:00:00,-2.782E-01,4C000000*,-702.6,977.129,91,35.0,45.1,0.408,735.4,2.1,1.050*
2018-06-11 00:01:00,-1.433E-01,4C000000*,-703.0,977.129,90,35.0,45.1,0.409,735.1,2.1,1.050*
2018-06-11 00:02:00,-2.310E-01,4C000000*,-702.6,977.129,90,35.1,45.0,0.408,735.4,2.1,1.050*
2018-06-11 00:03:00,-2.451E-01,4C000000*,-701.9,977.533,89,35.0,45.2,0.408,735.1,2.1,1.050*
2018-06-11 00:04:00,-2.007E-01,4C000000*,-702.6,977.129,90,35.0,44.9,0.408,735.1,2.1,1.050*
2018-06-11 00:05:00,-2.462E-01,4C000000*,-701.9,976.725,89,35.0,45.2,0.408,735.4,2.1,1.050*
2018-06-11 00:06:00,-2.132E-01,4C000000*,-702.6,976.725,91,35.0,45.0,0.408,735.1,2.1,1.050*
2018-06-11 00:07:00,-2.131E-01,4C000000*,-702.3,976.320,90,35.0,45.2,0.409,735.4,2.1,1.050*
2018-06-11 00:08:00,-2.271E-01,4C000000*,-702.3,975.512,90,35.1,45.1,0.409,735.1,2.1,1.050*
2018-06-11 00:09:00,-1.646E-01,4C000000*,-702.3,975.916,90,35.0,45.0,0.408,735.4,2.1,1.050*
2018-06-11 00:10:00,-2.562E-01,4C000000*,-702.6,975.916,90,35.1,45.1,0.409,735.1,2.1,1.050*
2018-06-11 00:11:00,-1.338E-01,4C000000*,-702.3,976.725,90,35.0,44.9,0.409,735.4,2.1,1.050*
2018-06-11 00:12:00,-2.317E-01,4C000000*,-702.6,976.725,91,35.0,45.1,0.409,735.1,2.1,1.050*
2018-06-11 00:13:00,-2.484E-01,4C000000*,-702.6,975.916,89,35.1,45.0,0.409,735.1,2.1,1.050*
2018-06-11 00:14:00,-2.981E-01,4C000000*,-702.6,978.342,90,35.1,45.3,0.408,735.4,2.1,1.050*
2018-06-11 00:15:00,-2.191E-01,4C000000*,-702.6,977.533,91,35.1,45.2,0.408,735.1,2.1,1.050*
2018-06-11 00:16:00,-3.055E-01,4C000000*,-702.3,975.108,90,35.1,45.0,0.409,735.4,2.1,1.050*
2018-06-11 00:17:00,-2.332E-01,4C000000*,-702.6,975.108,90,35.1,45.1,0.408,735.1,2.1,1.050*
2018-06-11 00:18:00,-1.990E-01,4C000000*,-702.3,976.320,90,35.1,44.9,0.409,735.1,2.1,1.050*
2018-06-11 00:19:00,-1.896E-01,4C000000*,-702.6,975.108,89,35.1,45.2,0.409,735.1,2.1,1.050*
2018-06-11 00:20:00,-2.354E-01,4C000000*,-702.6,976.320,90,35.1,45.0,0.409,735.1,2.1,1.050*
2018-06-11 00:21:00,-1.500E-01,4C000000*,-702.3,977.129,90,35.1,45.0,0.409,735.1,2.1,1.050*
2018-06-11 00:22:00,-1.855E-01,4C000000*,-702.6,975.512,89,35.1,45.2,0.409,735.1,2.1,1.050*
2018-06-11 00:23:00,-2.643E-01,4C000000*,-702.3,975.916,89,35.1,44.9,0.409,735.4,2.1,1.050*
2018-06-11 00:24:00,-2.184E-01,4C000000*,-702.3,975.512,90,35.1,45.2,0.409,735.1,2.1,1.050*
2018-06-11 00:25:00,-2.395E-01,4C000000*,-702.3,977.938,87,35.1,45.0,0.408,735.1,2.1,1.050*
2018-06-11 00:26:00,-2.765E-01,4C000000*,-701.9,977.129,89,35.1,45.2,0.409,735.1,2.1,1.050*
2018-06-11 00:27:00,-1.861E-01,4C000000*,-702.6,976.320,89,35.1,45.1,0.408,735.1,2.1,1.050*
2018-06-11 00:28:00,-2.163E-01,4C000000*,-702.6,975.512,89,35.1,45.0,0.409,735.1,2.1,1.050*
2018-06-11 00:29:00,-2.283E-01,4C000000*,-702.3,976.320,90,35.1,45.2,0.409,735.1,2.1,1.050*
2018-06-11 00:30:00,-2.306E-01,4C000000*,-702.6,975.512,89,35.1,44.9,0.409,735.1,2.1,1.050*
2018-06-11 00:31:00,-1.898E-01,4C000000*,-701.9,976.320,89,35.1,45.0,0.409,735.1,2.1,1.050*
2018-06-11 00:32:00,-2.743E-01,4C000000*,-702.6,975.916,91,35.1,45.1,0.409,735.1,2.1,1.050*
2018-06-11 00:33:00,-1.964E-01,4C000000*,-702.3,976.320,89,35.1,44.8,0.408,735.1,2.1,1.050*
2018-06-11 00:34:00,-2.097E-01,4C000000*,-702.6,977.938,90,35.1,45.3,0.409,735.1,2.1,1.050*
2018-06-11 00:35:00,-1.247E-01,4C000000*,-702.3,975.916,89,35.2,45.1,0.408,735.1,2.1,1.050*
2018-06-11 00:36:00,-2.005E-01,4C000000*,-702.3,976.725,89,35.1,44.9,0.409,735.1,2.1,1.050*
2018-06-11 00:37:00,-2.317E-01,4C000000*,-702.6,976.725,90,35.2,45.2,0.409,735.1,2.1,1.050*
2018-06-11 00:38:00,-2.553E-01,4C000000*,-702.3,975.512,90,35.1,45.0,0.408,735.1,2.1,1.050*
2018-06-11 00:39:00,-1.902E-01,4C000000*,-702.6,975.512,90,35.1,44.9,0.408,735.1,2.1,1.050*
2018-06-11 00:40:00,-1.775E-01,4C000000*,-702.3,975.916,88,35.2,45.3,0.408,734.8,2.1,1.050*
2018-06-11 00:41:00,-2.820E-01,4C000000*,-702.6,977.533,90,35.1,45.0,0.408,735.1,2.1,1.050*
2018-06-11 00:42:00,-2.282E-01,4C000000*,-702.3,976.725,89,35.1,45.0,0.408,735.4,2.1,1.050*
2018-06-11 00:43:00,-2.674E-01,4C000000*,-702.3,974.703,90,35.2,45.1,0.408,734.8,2.1,1.050*
2018-06-11 00:44:00,-3.025E-01,4C000000*,-702.6,975.916,90,35.2,44.9,0.408,735.1,2.1,1.050*
2018-06-11 00:45:00,-2.619E-01,4C000000*,-702.3,976.320,91,35.1,45.2,0.409,735.1,2.1,1.050*
2018-06-11 00:46:00,-2.847E-01,4C000000*,-702.3,974.703,89,35.1,45.2,0.409,735.1,2.1,1.050*
2018-06-11 00:47:00,-2.120E-01,4C000000*,-702.3,975.916,90,35.1,44.9,0.409,735.1,2.1,1.050*
2018-06-11 00:48:00,-3.037E-01,4C000000*,-702.6,976.320,90,35.2,45.2,0.409,735.1,2.1,1.050*
2018-06-11 00:49:00,-3.397E-01,4C000000*,-702.6,975.916,89,35.1,45.0,0.409,735.1,2.1,1.050*
2018-06-11 00:50:00,-3.163E-01,4C000000*,-702.6,975.916,91,35.1,45.1,0.409,735.1,2.1,1.050*
2018-06-11 00:51:00,-2.736E-01,4C000000*,-702.6,976.320,90,35.2,45.1,0.408,735.1,2.1,1.050*
2018-06-11 00:52:00,-2.726E-01,4C000000*,-702.6,975.916,89,35.2,45.0,0.409,735.4,2.1,1.050*
2018-06-11 00:53:00,-2.018E-01,4C000000*,-702.6,975.512,90,35.1,45.3,0.408,735.1,2.1,1.050*
2018-06-11 00:54:00,-1.892E-01,4C000000*,-702.3,976.320,91,35.1,44.9,0.408,735.1,2.1,1.050*
2018-06-11 00:55:00,-2.736E-01,4C000000*,-702.3,976.725,88,35.2,45.1,0.409,735.1,2.1,1.050*
2018-06-11 00:56:00,-2.892E-01,4C000000*,-702.3,975.512,88,35.1,45.1,0.409,735.1,2.1,1.050*
2018-06-11 00:57:00,-2.518E-01,4C000000*,-702.3,975.512,90,35.2,44.9,0.409,735.1,2.1,1.050*
2018-06-11 00:58:00,-2.597E-01,4C000000*,-702.3,974.703,90,35.2,45.2,0.409,735.1,2.1,1.050*
2018-06-11 00:59:00,-2.617E-01,4C000000*,-702.6,976.725,90,35.2,45.2,0.409,735.1,2.1,1.050*
2018-06-11 01:00:00,-2.084E-01,4C000000*,-702.6,975.512,90,35.2,44.8,0.409,735.1,2.1,1.050*
2018-06-11 01:01:00,-2.208E-01,4C000000*,-703.0,976.320,91,35.2,45.2,0.409,735.1,2.1,1.050*
2018-06-11 01:02:00,-2.978E-01,4C000000*,-702.3,976.725,91,35.2,45.0,0.409,735.1,2.1,1.050*
2018-06-11 01:03:00,-2.101E-01,4C000000*,-702.3,975.512,90,35.2,44.9,0.408,735.1,2.1,1.050*
2018-06-11 01:04:00,-1.939E-01,4C000000*,-702.6,975.916,89,35.2,45.2,0.408,735.4,2.1,1.050*
2018-06-11 01:05:00,-2.718E-01,4C000000*,-702.6,975.512,90,35.2,45.0,0.409,735.1,2.1,1.050*
2018-06-11 01:06:00,-2.134E-01,4C000000*,-702.6,975.916,90,35.1,45.0,0.408,735.4,2.1,1.050*
2018-06-11 01:07:00,-1.952E-01,4C000000*,-702.3,975.916,89,35.2,45.1,0.409,735.4,2.1,1.050*
2018-06-11 01:08:00,-2.785E-01,4C000000*,-702.3,975.916,90,35.2,44.9,0.409,735.1,2.1,1.050*
2018-06-11 01:09:00,-1.201E-01,4C000000*,-702.6,975.108,90,35.2,45.1,0.408,735.4,2.1,1.050*
2018-06-11 01:10:00,-2.636E-01,4C000000*,-702.6,976.320,90,35.2,45.1,0.408,735.1,2.1,1.050*
2018-06-11 01:11:00,-2.109E-01,4C000000*,-702.3,975.916,90,35.2,44.8,0.409,735.4,2.1,1.050*
2018-06-11 01:12:00,-2.670E-01,4C000000*,-702.3,977.129,90,35.3,45.2,0.409,735.4,2.1,1.050*
2018-06-11 01:13:00,-2.144E-01,4C000000*,-702.3,975.512,90,35.2,45.1,0.409,735.1,2.1,1.050*
2018-06-11 01:14:00,-1.874E-01,4C000000*,-702.3,975.512,90,35.2,45.1,0.409,735.4,2.1,1.050*
2018-06-11 01:15:00,-2.848E-01,4C000000*,-702.3,976.320,89,35.2,45.1,0.408,734.8,2.1,1.050*
2018-06-11 01:16:00,-1.673E-01,4C000000*,-702.6,975.512,89,35.2,45.0,0.409,735.1,2.1,1.050*
2018-06-11 01:17:00,-2.532E-01,4C000000*,-702.3,977.129,90,35.2,45.2,0.408,735.1,2.1,1.050*
2018-06-11 01:18:00,-1.997E-01,4C000000*,-702.6,975.512,89,35.3,44.9,0.408,735.1,2.1,1.050*
2018-06-11 01:19:00,-2.601E-01,4C000000*,-702.3,975.108,89,35.2,45.3,0.408,735.1,2.1,1.050*
2018-06-11 01:20:00,-2.642E-01,4C000000*,-702.3,977.129,92,35.2,45.1,0.408,735.1,2.1,1.050*
2018-06-11 01:21:00,-2.317E-01,4C000000*,-702.3,976.320,90,35.2,44.9,0.409,735.1,2.1,1.050*
2018-06-11 01:22:00,-2.341E-01,4C000000*,-702.6,976.320,90,35.2,45.2,0.409,735.1,2.1,1.050*
2018-06-11 01:23:00,-2.146E-01,4C000000*,-702.3,976.725,89,35.2,45.0,0.408,735.1,2.1,1.050*
2018-06-11 01:24:00,-2.420E-01,4C000000*,-703.0,976.320,90,35.2,45.3,0.409,735.1,2.1,1.050*
2018-06-11 01:25:00,-2.850E-01,4C000000*,-702.3,975.916,90,35.2,45.1,0.408,735.1,2.1,1.050*
2018-06-11 01:26:00,-2.603E-01,4C000000*,-702.3,976.320,91,35.2,45.0,0.409,735.1,2.1,1.050*
2018-06-11 01:27:00,-2.700E-01,4C000000*,-702.3,976.725,89,35.3,45.1,0.408,734.8,2.1,1.050*
2018-06-11 01:28:00,-3.041E-01,4C000000*,-702.3,978.342,89,35.2,44.9,0.409,735.1,2.1,1.050*
2018-06-11 01:29:00,-2.856E-01,4C000000*,-702.3,976.725,90,35.2,45.1,0.408,735.1,2.1,1.050*
2018-06-11 01:30:00,-1.975E-01,4C000000*,-702.6,977.533,91,35.3,45.1,0.408,735.1,2.1,1.050*
2018-06-11 01:31:00,-2.162E-01,4C000000*,-702.6,977.533,90,35.3,44.9,0.409,735.1,2.1,1.050*
2018-06-11 01:32:00,-2.075E-01,4C000000*,-702.6,977.129,90,35.3,45.3,0.408,735.1,2.1,1.050*
2018-06-11 01:33:00,-2.234E-01,4C000000*,-702.3,977.533,89,35.2,44.9,0.408,735.1,2.1,1.050*
2018-06-11 01:34:00,-2.076E-01,4C000000*,-702.3,976.320,90,35.3,45.0,0.409,735.1,2.1,1.050*
2018-06-11 01:35:00,-2.297E-01,4C000000*,-702.3,976.725,89,35.3,45.0,0.408,735.1,2.1,1.050*
2018-06-11 01:36:00,-2.942E-01,4C000000*,-702.3,976.725,89,35.2,45.0,0.408,735.1,2.1,1.050*
2018-06-11 01:37:00,-2.827E-01,4C000000*,-702.6,976.725,91,35.2,45.2,0.408,735.1,2.1,1.050*
2018-06-11 01:38:00,-2.811E-01,4C000000*,-702.3,977.533,90,35.3,44.9,0.409,735.1,2.1,1.050*
2018-06-11 01:39:00,-2.387E-01,4C000000*,-702.3,977.938,90,35.3,45.2,0.409,735.1,2.1,1.050*
2018-06-11 01:40:00,-2.096E-01,4C000000*,-702.6,977.129,90,35.2,45.0,0.409,735.1,2.1,1.050*
2018-06-11 01:41:00,-2.260E-01,4C000000*,-702.3,975.108,89,35.2,44.9,0.408,735.1,2.1,1.050*
2018-06-11 01:42:00,-2.231E-01,4C000000*,-702.3,977.129,92,35.3,45.2,0.409,734.8,2.1,1.050*
2018-06-11 01:43:00,-2.364E-01,4C000000*,-702.6,976.725,90,35.3,44.9,0.409,734.8,2.1,1.050*
2018-06-11 01:44:00,-2.465E-01,4C000000*,-702.6,974.299,89,35.3,45.3,0.409,735.1,2.1,1.050*
2018-06-11 01:45:00,-2.732E-01,4C000000*,-702.6,975.916,88,35.3,45.1,0.409,735.1,2.1,1.050*
2018-06-11 01:46:00,-1.896E-01,4C000000*,-702.3,975.512,91,35.3,45.1,0.409,735.1,2.1,1.050*
2018-06-11 01:47:00,-3.803E-01,4C000000*,-702.3,975.916,90,35.2,45.1,0.409,735.1,2.1,1.050*
2018-06-11 01:48:00,-1.960E-01,4C000000*,-702.3,975.512,90,35.2,45.0,0.409,735.1,2.1,1.050*
2018-06-11 01:49:00,-3.156E-01,4C000000*,-702.6,974.299,90,35.2,45.2,0.408,734.8,2.1,1.050*
2018-06-11 01:50:00,-2.032E-01,4C000000*,-702.3,975.916,89,35.2,44.9,0.409,735.1,2.1,1.050*
2018-06-11 01:51:00,-2.856E-01,4C000000*,-702.6,976.320,89,35.3,45.2,0.408,734.8,2.1,1.050*
2018-06-11 01:52:00,-2.271E-01,4C000000*,-702.6,976.725,90,35.3,45.0,0.409,734.8,2.1,1.050*
2018-06-11 01:53:00,-2.789E-01,4C000000*,-702.3,975.916,89,35.3,45.0,0.409,734.8,2.1,1.050*
2018-06-11 01:54:00,-2.714E-01,4C000000*,-702.3,976.320,91,35.4,45.1,0.408,735.1,2.1,1.050*
2018-06-11 01:55:00,-2.121E-01,4C000000*,-702.3,976.725,90,35.3,45.0,0.408,735.1,2.1,1.050*
2018-06-11 01:56:00,-3.065E-01,4C000000*,-702.6,977.129,90,35.3,45.3,0.408,734.8,2.1,1.050*
2018-06-11 01:57:00,-1.829E-01,4C000000*,-702.3,976.725,89,35.3,44.9,0.408,734.8,2.1,1.050*
2018-06-11 01:58:00,-1.763E-01,4C000000*,-702.3,977.533,92,35.3,45.2,0.408,734.8,2.1,1.050*
2018-06-11 01:59:00,-3.511E-01,4C000000*,-702.3,977.129,89,35.3,45.0,0.409,734.8,2.1,1.050*
2018-06-11 02:00:00,-2.063E-01,4C000000*,-702.6,977.533,90,35.4,44.9,0.408,734.8,2.1,1.050*
2018-06-11 02:01:00,-2.195E-01,4C000000*,-702.3,977.533,91,35.3,45.2,0.409,734.8,2.1,1.050*
2018-06-11 02:02:00,-2.151E-01,4C000000*,-702.6,976.725,90,35.3,45.0,0.408,734.8,2.1,1.050*
2018-06-11 02:03:00,-3.015E-01,4C000000*,-702.3,976.320,89,35.4,45.3,0.408,734.8,2.1,1.050*
2018-06-11 02:04:00,-2.677E-01,4C000000*,-702.3,977.533,90,35.3,45.1,0.408,734.8,2.1,1.050*
2018-06-11 02:05:00,-3.064E-01,4C000000*,-702.3,976.320,90,35.3,44.9,0.408,734.8,2.1,1.050*
2018-06-11 02:06:00,-2.613E-01,4C000000*,-702.6,976.725,89,35.3,45.2,0.408,734.8,2.1,1.050*
2018-06-11 02:07:00,-2.890E-01,4C000000*,-702.3,976.320,89,35.3,44.9,0.408,734.8,2.1,1.050*
2018-06-11 02:08:00,-2.881E-01,4C000000*,-702.6,976.725,90,35.3,44.9,0.408,735.1,2.1,1.050*
2018-06-11 02:09:00,-2.948E-01,4C000000*,-702.3,976.725,90,35.4,45.2,0.408,735.1,2.1,1.050*
2018-06-11 02:10:00,-2.924E-01,4C000000*,-702.6,975.512,90,35.4,45.0,0.408,734.8,2.1,1.050*
2018-06-11 02:11:00,-3.253E-01,4C000000*,-703.0,975.108,90,35.4,45.0,0.409,734.8,2.1,1.050*
2018-06-11 02:12:00,-2.250E-01,4C000000*,-702.3,977.533,91,35.4,45.1,0.409,734.8,2.1,1.050*
2018-06-11 02:13:00,-2.028E-01,4C000000*,-702.3,975.916,90,35.3,44.9,0.408,734.8,2.1,1.050*
2018-06-11 02:14:00,-2.723E-01,4C000000*,-702.6,976.320,89,35.4,45.2,0.409,735.1,2.1,1.050*
2018-06-11 02:15:00,-1.915E-01,4C000000*,-703.0,975.916,90,35.4,45.2,0.408,734.8,2.1,1.050*
2018-06-11 02:16:00,-2.330E-01,4C000000*,-702.6,975.512,90,35.4,44.8,0.409,735.1,2.1,1.050*
2018-06-11 02:17:00,-3.130E-01,4C000000*,-702.6,976.320,89,35.4,45.3,0.408,734.8,2.1,1.050*
2018-06-11 02:18:00,-1.867E-01,4C000000*,-701.9,978.746,88,35.4,45.0,0.408,734.8,2.1,1.050*
2018-06-11 02:19:00,-3.071E-01,4C000000*,-702.6,975.512,90,35.4,44.9,0.409,734.8,2.1,1.050*
2018-06-11 02:20:00,-3.034E-01,4C000000*,-702.3,975.108,90,35.3,45.3,0.409,734.8,2.1,1.050*
2018-06-11 02:21:00,-2.234E-01,4C000000*,-702.3,976.320,90,35.3,45.0,0.408,734.8,2.1,1.050*
2018-06-11 02:22:00,-2.644E-01,4C000000*,-701.9,976.725,89,35.4,45.0,0.409,734.8,2.1,1.050*
2018-06-11 02:23:00,-2.427E-01,4C000000*,-702.3,976.320,90,35.4,45.2,0.409,734.8,2.1,1.050*
2018-06-11 02:24:00,-3.291E-01,4C000000*,-702.3,974.703,89,35.3,44.9,0.409,734.8,2.1,1.050*
2018-06-11 02:25:00,-2.821E-01,4C000000*,-702.6,974.703,91,35.4,45.0,0.409,735.1,2.1,1.050*
2018-06-11 02:26:00,-2.156E-01,4C000000*,-702.6,974.299,89,35.3,45.1,0.408,734.8,2.1,1.050*
2018-06-11 02:27:00,-2.456E-01,4C000000*,-702.3,976.320,91,35.4,44.9,0.409,734.8,2.1,1.050*
2018-06-11 02:28:00,-3.052E-01,4C000000*,-702.3,974.299,89,35.4,45.2,0.408,734.8,2.1,1.050*
2018-06-11 02:29:00,-2.475E-01,4C000000*,-702.3,975.108,89,35.4,45.1,0.408,734.8,2.1,1.050*
2018-06-11 02:30:00,-2.406E-01,4C000000*,-702.3,974.703,90,35.4,45.1,0.409,735.1,2.1,1.050*
2018-06-11 02:31:00,-2.450E-01,4C000000*,-702.6,973.491,88,35.4,45.1,0.408,734.8,2.1,1.050*
2018-06-11 02:32:00,-2.430E-01,4C000000*,-702.3,975.108,90,35.4,44.9,0.408,734.8,2.1,1.050*
2018-06-11 02:33:00,-2.420E-01,4C000000*,-702.3,977.129,89,35.4,45.2,0.409,734.8,2.1,1.050*
2018-06-11 02:34:00,-2.729E-01,4C000000*,-702.6,973.895,89,35.4,45.2,0.408,734.8,2.1,1.050*
2018-06-11 02:35:00,-2.879E-01,4C000000*,-702.3,973.895,88,35.4,44.8,0.408,734.8,2.1,1.050*
2018-06-11 02:36:00,-1.384E-01,4C000000*,-702.3,975.108,90,35.4,45.2,0.408,734.8,2.1,1.050*
2018-06-11 02:37:00,-2.314E-01,4C000000*,-702.3,975.108,90,35.4,45.0,0.408,734.8,2.1,1.050*
2018-06-11 02:38:00,-2.554E-01,4C000000*,-702.3,975.512,91,35.4,44.9,0.408,734.8,2.1,1.050*
2018-06-11 02:39:00,-3.219E-01,4C000000*,-702.3,975.108,89,35.4,45.2,0.408,734.8,2.1,1.050*
2018-06-11 02:40:00,-1.765E-01,4C000000*,-702.3,975.108,90,35.4,45.0,0.408,734.8,2.1,1.050*
2018-06-11 02:41:00,-1.878E-01,4C000000*,-702.3,975.108,90,35.5,45.0,0.409,734.8,2.1,1.050*
2018-06-11 02:42:00,-1.960E-01,4C000000*,-702.3,975.108,89,35.5,45.2,0.408,734.8,2.1,1.050*
2018-06-11 02:43:00,-2.473E-01,4C000000*,-702.3,975.108,91,35.5,45.0,0.408,734.8,2.1,1.050*
2018-06-11 02:44:00,-1.754E-01,4C000000*,-702.3,975.108,90,35.4,45.1,0.408,734.8,2.1,1.050*
2018-06-11 02:45:00,-2.655E-01,4C000000*,-702.3,974.299,90,35.5,45.0,0.408,734.8,2.1,1.050*
2018-06-11 02:46:00,-2.678E-01,4C000000*,-702.6,976.320,88,35.5,45.2,0.409,734.8,2.1,1.050*
2018-06-11 02:47:00,-2.206E-01,4C000000*,-702.6,975.916,89,35.5,45.1,0.408,734.8,2.1,1.050*
2018-06-11 02:48:00,-2.367E-01,4C000000*,-702.3,975.108,88,35.5,45.0,0.409,735.1,2.1,1.050*
2018-06-11 02:49:00,-2.856E-01,4C000000*,-702.6,976.320,90,35.4,45.2,0.409,734.8,2.1,1.050*
2018-06-11 02:50:00,-3.297E-01,4C000000*,-702.3,975.916,91,35.4,44.9,0.408,734.8,2.1,1.050*
2018-06-11 02:51:00,-3.070E-01,4C000000*,-702.3,977.129,89,35.5,45.1,0.409,734.8,2.1,1.050*
2018-06-11 02:52:00,-2.173E-01,4C000000*,-702.3,974.299,90,35.5,45.1,0.409,734.8,2.1,1.050*
2018-06-11 02:53:00,-3.358E-01,4C000000*,-702.3,975.512,89,35.5,44.8,0.408,734.8,2.1,1.050*
2018-06-11 02:54:00,-2.401E-01,4C000000*,-702.3,976.320,89,35.5,45.2,0.408,734.8,2.1,1.050*
2018-06-11 02:55:00,-2.364E-01,4C000000*,-702.6,976.320,90,35.5,45.0,0.408,734.8,2.1,1.050*
2018-06-11 02:56:00,-3.426E-01,4C000000*,-702.6,975.512,90,35.5,45.1,0.408,734.8,2.1,1.050*
2018-06-11 02:57:00,-2.996E-01,4C000000*,-702.3,975.108,88,35.5,45.1,0.408,734.8,2.1,1.050*
2018-06-11 02:58:00,-2.934E-01,4C000000*,-701.9,975.108,88,35.5,44.9,0.409,734.8,2.1,1.050*
2018-06-11 02:59:00,-2.065E-01,4C000000*,-702.3,975.512,90,35.5,45.2,0.408,734.8,2.1,1.050*
2018-06-11 03:00:00,-2.103E-01,4C000000*,-702.6,975.108,91,35.5,45.2,0.408,734.8,2.1,1.050*
2018-06-11 03:01:00,-2.523E-01,4C000000*,-702.3,974.703,90,35.5,44.9,0.408,734.8,2.1,1.050*
2018-06-11 03:02:00,-2.913E-01,4C000000*,-702.3,976.320,90,35.4,45.2,0.409,734.8,2.1,1.050*
2018-06-11 03:03:00,-3.096E-01,4C000000*,-702.3,977.938,90,35.5,45.0,0.408,734.8,2.1,1.050*
2018-06-11 03:04:00,-3.328E-01,4C000000*,-702.3,976.320,91,35.5,44.9,0.408,734.8,2.1,1.050*
2018-06-11 03:05:00,-2.359E-01,4C000000*,-702.3,975.916,89,35.5,45.2,0.408,734.8,2.1,1.050*
2018-06-11 03:06:00,-2.418E-01,4C000000*,-702.3,977.129,89,35.5,44.9,0.408,734.8,2.1,1.050*
2018-06-11 03:07:00,-3.164E-01,4C000000*,-701.9,975.916,90,35.6,45.3,0.408,734.8,2.1,1.050*
2018-06-11 03:08:00,-3.501E-01,4C000000*,-703.0,976.725,90,35.6,45.1,0.408,734.8,2.1,1.050*
2018-06-11 03:09:00,-2.790E-01,4C000000*,-702.3,976.320,89,35.5,44.9,0.408,734.8,2.1,1.050*
2018-06-11 03:10:00,-2.827E-01,4C000000*,-702.3,976.725,90,35.6,45.2,0.408,734.8,2.1,1.050*
2018-06-11 03:11:00,-2.598E-01,4C000000*,-702.3,976.320,90,35.5,45.0,0.408,734.8,2.1,1.050*
2018-06-11 03:12:00,-1.850E-01,4C000000*,-702.3,975.108,89,35.6,44.9,0.409,734.8,2.1,1.050*
2018-06-11 03:13:00,-2.556E-01,4C000000*,-702.3,975.916,90,35.6,45.3,0.408,734.5,2.1,1.050*
2018-06-11 03:14:00,-2.361E-01,4C000000*,-702.6,974.703,90,35.6,45.0,0.408,734.8,2.1,1.050*
2018-06-11 03:15:00,-2.429E-01,4C000000*,-702.3,974.299,90,35.6,45.0,0.409,734.8,2.1,1.050*
2018-06-11 03:16:00,-2.223E-01,4C000000*,-702.3,975.512,91,35.6,45.1,0.409,734.8,2.1,1.050*
2018-06-11 03:17:00,-3.539E-01,4C000000*,-702.3,975.916,90,35.6,44.9,0.408,734.8,2.1,1.050*
2018-06-11 03:18:00,-2.499E-01,4C000000*,-703.0,975.916,89,35.6,45.2,0.409,734.8,2.1,1.050*
2018-06-11 03:19:00,-3.282E-01,4C000000*,-702.3,977.129,90,35.7,45.2,0.409,734.8,2.1,1.050*
2018-06-11 03:20:00,-2.355E-01,4C000000*,-702.6,975.108,91,35.6,44.8,0.409,734.5,2.1,1.050*
2018-06-11 03:21:00,-3.700E-01,4C000000*,-703.0,975.512,88,35.6,45.3,0.408,734.8,2.1,1.050*
2018-06-11 03:22:00,-4.218E-01,4C000000*,-702.3,975.512,89,35.7,45.0,0.408,734.8,2.1,1.050*
2018-06-11 03:23:00,-2.660E-01,4C000000*,-702.3,975.512,90,35.6,44.9,0.409,734.5,2.1,1.050*
2018-06-11 03:24:00,-2.727E-01,4C000000*,-701.9,975.108,89,35.7,45.2,0.408,734.8,2.1,1.050*
2018-06-11 03:25:00,-2.626E-01,4C000000*,-701.9,976.725,90,35.6,45.0,0.408,734.5,2.1,1.050*
2018-06-11 03:26:00,-2.014E-01,4C000000*,-703.0,975.512,90,35.7,45.3,0.408,734.8,2.1,1.050*
2018-06-11 03:27:00,-2.789E-01,4C000000*,-702.6,975.512,90,35.6,45.1,0.408,734.5,2.1,1.050*
2018-06-11 03:28:00,-3.326E-01,4C000000*,-702.3,975.916,90,35.6,44.9,0.408,734.8,2.1,1.050*
2018-06-11 03:29:00,-2.682E-01,4C000000*,-701.9,975.512,89,35.6,45.2,0.408,734.5,2.1,1.050*
2018-06-11 03:30:00,-1.693E-01,4C000000*,-702.3,975.512,91,35.7,45.0,0.408,734.5,2.1,1.050*
2018-06-11 03:31:00,-1.229E-01,4C000000*,-702.3,975.108,90,35.7,45.2,0.408,734.8,2.1,1.050*
2018-06-11 03:32:00,-3.282E-01,4C000000*,-702.6,975.916,89,35.7,45.2,0.408,734.5,2.1,1.050*
2018-06-11 03:33:00,-2.248E-01,4C000000*,-702.3,975.108,89,35.7,44.8,0.408,734.8,2.1,1.050*
2018-06-11 03:34:00,-1.199E-01,4C000000*,-702.3,975.108,89,35.7,45.2,0.408,734.5,2.1,1.050*
2018-06-11 03:35:00,-1.916E-01,4C000000*,-702.3,976.320,89,35.6,45.0,0.408,734.5,2.1,1.050*
2018-06-11 03:36:00,-2.247E-01,4C000000*,-702.3,975.512,90,35.7,44.9,0.409,734.5,2.1,1.050*
2018-06-11 03:37:00,-2.135E-01,4C000000*,-702.3,975.108,90,35.7,45.2,0.408,734.5,2.1,1.050*
2018-06-11 03:38:00,-2.296E-01,4C000000*,-702.3,975.512,89,35.7,45.0,0.408,734.5,2.1,1.050*
2018-06-11 03:39:00,-2.641E-01,4C000000*,-702.3,973.491,87,35.7,45.0,0.408,734.8,2.1,1.050*
2018-06-11 03:40:00,-2.392E-01,4C000000*,-702.3,975.916,90,35.7,45.2,0.408,734.5,2.1,1.050*
2018-06-11 03:41:00,-2.264E-01,4C000000*,-702.6,975.512,89,35.7,44.9,0.408,734.5,2.1,1.050*
2018-06-11 03:42:00,-2.314E-01,4C000000*,-702.3,975.512,90,35.8,45.2,0.408,734.5,2.1,1.050*
2018-06-11 03:43:00,-2.384E-01,4C000000*,-702.3,975.916,91,35.7,45.0,0.408,734.5,2.1,1.050*
2018-06-11 03:44:00,-2.046E-01,4C000000*,-702.3,975.916,90,35.7,44.9,0.409,734.5,2.1,1.050*
2018-06-11 03:45:00,-2.553E-01,4C000000*,-702.3,976.725,90,35.8,45.2,0.408,734.5,2.1,1.050*
2018-06-11 03:46:00,-2.531E-01,4C000000*,-702.3,975.512,91,35.7,45.0,0.408,734.5,2.1,1.050*
2018-06-11 03:47:00,-2.570E-01,4C000000*,-702.3,976.725,90,35.8,45.1,0.408,734.8,2.1,1.050*
2018-06-11 03:48:00,-2.755E-01,4C000000*,-702.3,974.703,87,35.8,45.1,0.408,734.2,2.1,1.050*
2018-06-11 03:49:00,-2.220E-01,4C000000*,-702.3,974.299,89,35.7,44.9,0.408,734.5,2.1,1.050*
2018-06-11 03:50:00,-3.253E-01,4C000000*,-702.3,974.703,90,35.8,45.2,0.408,734.5,2.1,1.050*
2018-06-11 03:51:00,-2.751E-01,4C000000*,-702.3,974.299,90,35.8,45.0,0.408,734.2,2.1,1.050*
2018-06-11 03:52:00,-2.891E-01,4C000000*,-702.3,974.703,91,35.8,45.0,0.408,734.5,2.1,1.050*
2018-06-11 03:53:00,-1.875E-01,4C000000*,-702.3,975.108,90,35.8,45.2,0.408,734.5,2.1,1.050*
2018-06-11 03:54:00,-2.124E-01,4C000000*,-702.3,974.703,90,35.8,44.9,0.408,734.2,2.1,1.050*
2018-06-11 03:55:00,-2.910E-01,4C000000*,-702.3,973.895,90,35.7,45.1,0.408,734.5,2.1,1.050*
2018-06-11 03:56:00,-2.506E-01,4C000000*,-702.3,973.895,89,35.8,45.1,0.409,734.2,2.1,1.050*
2018-06-11 03:57:00,-2.670E-01,4C000000*,-702.6,973.895,90,35.8,44.8,0.409,734.5,2.1,1.050*
2018-06-11 03:58:00,-2.855E-01,4C000000*,-702.6,973.895,90,35.8,45.3,0.408,734.5,2.1,1.050*
2018-06-11 03:59:00,-2.216E-01,4C000000*,-701.9,974.703,89,35.8,45.1,0.408,734.5,2.1,1.050*
2018-06-11 04:00:00,-2.036E-01,4C000000*,-702.6,973.491,88,35.8,44.9,0.408,734.5,2.1,1.050*
2018-06-11 04:01:00,-2.666E-01,4C000000*,-702.3,974.299,91,35.8,45.2,0.408,734.5,2.1,1.050*
2018-06-11 04:02:00,-2.440E-01,4C000000*,-702.3,974.299,90,35.8,45.0,0.408,734.5,2.1,1.050*
2018-06-11 04:03:00,-2.450E-01,4C000000*,-702.3,973.491,89,35.8,44.9,0.409,734.5,2.1,1.050*
2018-06-11 04:04:00,-2.116E-01,4C000000*,-702.3,975.512,91,35.8,45.3,0.408,734.5,2.1,1.050*
2018-06-11 04:05:00,-2.338E-01,4C000000*,-702.3,974.299,91,35.8,45.0,0.409,734.5,2.1,1.050*
2018-06-11 04:06:00,-2.672E-01,4C000000*,-702.3,975.512,90,35.8,45.1,0.409,734.5,2.1,1.050*
2018-06-11 04:07:00,-3.041E-01,4C000000*,-702.3,973.895,91,35.8,45.1,0.408,734.2,2.1,1.050*
2018-06-11 04:08:00,-2.121E-01,4C000000*,-702.3,975.916,90,35.8,44.9,0.408,734.2,2.1,1.050*
2018-06-11 04:09:00,-1.989E-01,4C000000*,-702.3,974.703,88,35.8,45.2,0.408,734.5,2.1,1.050*
2018-06-11 04:10:00,-2.388E-01,4C000000*,-702.3,974.703,90,35.9,45.2,0.408,734.5,2.1,1.050*
2018-06-11 04:11:00,-3.579E-01,4C000000*,-702.3,974.703,89,35.8,45.0,0.408,734.5,2.1,1.050*
2018-06-11 04:12:00,-2.818E-01,4C000000*,-702.6,975.108,90,35.8,45.2,0.408,734.2,2.1,1.050*
2018-06-11 04:13:00,-2.086E-01,4C000000*,-702.3,975.916,88,35.8,44.9,0.409,734.2,2.1,1.050*
2018-06-11 04:14:00,-2.301E-01,4C000000*,-702.3,976.320,91,35.8,45.1,0.408,734.5,2.1,1.050*